User: anonymous   Login
Location: Unspecified
(0.0000°N, 0.0000°E)
Time: 10:17:43
(UTC+00:00)
Language:

COSMOS 2488 - Orbit

View from above orbital plane
View from above orbital plane
View from above satellite
View from above satellite

Ground track
Ground track

The orbit data is extracted from the following two-line orbital elements,

1 39483U 13076A   17080.83011616 +.00000010 +00000-0 +00000-0 0  9997
2 39483 082.4820 111.6164 0018482 249.1609 110.7491 12.42864011146909
Epoch (UTC): 21 March 2017 19:55:22
Eccentricity: 0.0018482
inclination: 82.4820°
perigee height: 1480 km
apogee height: 1509 km
right ascension of ascending node: 111.6164°
argument of perigee: 249.1609°
revolutions per day: 12.42864011
mean anomaly at epoch: 110.7491°
orbit number at epoch: 14690

The dashed part of the orbit path shows where the satellite is in the earth's shadow,  

DLR